小惑星A/2019 K6

A/2019 K6

English version
Home page
Updated on February 19, 2020

---------------------------------------------------------------------

・ プロフィール

発見日 2019年5月31日
発見光度 21.1等
発見者 Pan-STARRS 2 telescope (Haleakala)

・ 写真集

・ 軌道要素

Epoch 2020 May 31.0 TT = JDT 2459000.5
T 2020 May 20.18043 TT                                  Bell
q   3.9286017            (2000.0)            P               Q
z  +0.0006686      Peri.  187.61694     -0.78646444     -0.35803624
 +/-0.0000018      Node    42.94000     -0.52055043     +0.82279448
e   0.9973735      Incl.  132.37336     -0.33241680     -0.44138338
H   13.6
From 177 observations 2019 May 7-2020 Feb. 2, mean residual 0".3.

・ 光度変化

        H = 13.0  G = 0.15

---------------------------------------------------------------------

軌道要素はM.P.E.C. 2020-C98に掲載されたものです。
光度グラフはComet for Windowsで作成したものです。

---------------------------------------------------------------------

Copyright(C) Seiichi Yoshida (comet@aerith.net). All rights reserved.